LZ1HCO-25 Weather Reports


time (UTC)temp
F
wind
direction
speed
knots
gust
knots
rain 1hr
in
rain 24hr
in
rain mn
in
humidity
%
barometer
mb
20260506113111 82 0 0.0 0.0 0.00 0.00 0.00 44 967.0
20260506112559 80 0 0.0 0.0 0.00 0.00 0.00 47 967.0
20260506112048 80 0 0.0 0.0 0.00 0.00 0.00 45 967.0
20260506111537 82 0 0.0 0.0 0.00 0.00 0.00 45 967.0
20260506111025 81 0 0.0 0.0 0.00 0.00 0.00 45 967.0
20260506110514 80 0 0.0 0.0 0.00 0.00 0.00 42 967.0
20260506110003 80 0 0.0 0.0 0.00 0.00 0.00 42 967.0
20260506105451 83 0 0.0 0.0 0.00 0.00 0.00 43 967.0
20260506104940 80 0 0.0 0.0 0.00 0.00 0.00 39 967.0
20260506104429 81 0 0.0 0.0 0.00 0.00 0.00 39 967.0
20260506103917 81 0 0.0 0.0 0.00 0.00 0.00 42 967.0
20260506103406 81 0 0.0 0.0 0.00 0.00 0.00 39 967.0
20260506102855 79 0 0.0 0.0 0.00 0.00 0.00 40 967.0
20260506102343 79 0 0.0 0.0 0.00 0.00 0.00 40 967.0
20260506101832 79 0 0.0 0.0 0.00 0.00 0.00 40 967.0
20260506101320 81 0 0.0 0.0 0.00 0.00 0.00 41 967.0
20260506100809 81 0 0.0 0.0 0.00 0.00 0.00 37 967.0
20260506100258 83 0 0.0 0.0 0.00 0.00 0.00 42 967.0
20260506095746 80 0 0.0 0.0 0.00 0.00 0.00 38 967.0
20260506095235 81 0 0.0 0.0 0.00 0.00 0.00 38 967.0
20260506094724 80 0 0.0 0.0 0.00 0.00 0.00 38 967.0
20260506094212 82 0 0.0 0.0 0.00 0.00 0.00 38 967.0
20260506093701 80 0 0.0 0.0 0.00 0.00 0.00 36 967.0
20260506093150 83 0 0.0 0.0 0.00 0.00 0.00 38 967.0
20260506092638 81 0 0.0 0.0 0.00 0.00 0.00 39 967.0
20260506092127 82 0 0.0 0.0 0.00 0.00 0.00 36 967.0
20260506091615 81 0 0.0 0.0 0.00 0.00 0.00 37 968.0
20260506091104 83 0 0.0 0.0 0.00 0.00 0.00 39 967.0
20260506090553 80 0 0.0 0.0 0.00 0.00 0.00 40 968.0
20260506090041 79 0 0.0 0.0 0.00 0.00 0.00 40 968.0
20260506085530 80 0 0.0 0.0 0.00 0.00 0.00 37 967.0
20260506085217 79 0 0.0 0.0 0.00 0.00 0.00 36 967.0
20260506084705 79 0 0.0 0.0 0.00 0.00 0.00 39 968.0
20260506084154 80 0 0.0 0.0 0.00 0.00 0.00 38 968.0
20260506083643 80 0 0.0 0.0 0.00 0.00 0.00 40 968.0
20260506083131 79 0 0.0 0.0 0.00 0.00 0.00 36 967.0
20260506082620 80 0 0.0 0.0 0.00 0.00 0.00 41 967.0
20260506082109 81 0 0.0 0.0 0.00 0.00 0.00 38 967.0
20260506081557 80 0 0.0 0.0 0.00 0.00 0.00 37 967.0
20260506081046 81 0 0.0 0.0 0.00 0.00 0.00 40 967.0
20260506080534 81 0 0.0 0.0 0.00 0.00 0.00 39 967.0
20260506073426 78 0 0.0 0.0 0.00 0.00 0.00 41 967.0
20260506072915 78 0 0.0 0.0 0.00 0.00 0.00 40 968.0
20260506072404 78 0 0.0 0.0 0.00 0.00 0.00 39 968.0
20260506071852 77 0 0.0 0.0 0.00 0.00 0.00 41 968.0
20260506071341 76 0 0.0 0.0 0.00 0.00 0.00 41 968.0
20260506070830 75 0 0.0 0.0 0.00 0.00 0.00 41 968.0
20260506070318 76 0 0.0 0.0 0.00 0.00 0.00 42 968.0
20260506062218 73 0 0.0 0.0 0.00 0.00 0.00 42 968.0
20260506061707 73 0 0.0 0.0 0.00 0.00 0.00 45 968.0
20260506061155 72 0 0.0 0.0 0.00 0.00 0.00 44 968.0
20260506060644 72 0 0.0 0.0 0.00 0.00 0.00 46 968.0
20260506060133 71 0 0.0 0.0 0.00 0.00 0.00 46 968.0
20260506050939 66 0 0.0 0.0 0.00 0.00 0.00 86 968.0
20260506050427 64 0 0.0 0.0 0.00 0.00 0.00 92 968.0
20260506044853 62 0 0.0 0.0 0.00 0.00 0.00 98 968.0
20260506044342 61 0 0.0 0.0 0.00 0.00 0.00 99 968.0
20260506043831 60 0 0.0 0.0 0.00 0.00 0.00 99 968.0
20260506043319 59 0 0.0 0.0 0.00 0.00 0.00 96 968.0
20260506042808 60 0 0.0 0.0 0.00 0.00 0.00 96 968.0
20260506042257 59 0 0.0 0.0 0.00 0.00 0.00 98 968.0
20260506041745 58 0 0.0 0.0 0.00 0.00 0.00 99 968.0
20260506041234 58 0 0.0 0.0 0.00 0.00 0.00 99 967.0
20260506040723 57 0 0.0 0.0 0.00 0.00 0.00 99 967.0
20260506040211 56 0 0.0 0.0 0.00 0.00 0.00 99 967.0
20260506035700 55 0 0.0 0.0 0.00 0.00 0.00 99 967.0
20260506035148 55 0 0.0 0.0 0.00 0.00 0.00 99 967.0
20260506034637 55 0 0.0 0.0 0.00 0.00 0.00 99 967.0
20260506034127 54 0 0.0 0.0 0.00 0.00 0.00 99 967.0
20260506033614 53 0 0.0 0.0 0.00 0.00 0.00 99 967.0
20260506033103 53 0 0.0 0.0 0.00 0.00 0.00 99 967.0
20260506032552 53 0 0.0 0.0 0.00 0.00 0.00 99 967.0
20260506032040 53 0 0.0 0.0 0.00 0.00 0.00 99 967.0
20260506031529 53 0 0.0 0.0 0.00 0.00 0.00 99 967.0
20260506031018 53 0 0.0 0.0 0.00 0.00 0.00 99 967.0
20260506030506 53 0 0.0 0.0 0.00 0.00 0.00 99 967.0
20260506025955 53 0 0.0 0.0 0.00 0.00 0.00 99 967.0
20260506025443 53 0 0.0 0.0 0.00 0.00 0.00 99 967.0
20260506024932 53 0 0.0 0.0 0.00 0.00 0.00 99 967.0
20260506024421 53 0 0.0 0.0 0.00 0.00 0.00 99 967.0
20260506023909 53 0 0.0 0.0 0.00 0.00 0.00 99 967.0
20260506023358 53 0 0.0 0.0 0.00 0.00 0.00 99 967.0
20260506022847 53 0 0.0 0.0 0.00 0.00 0.00 99 967.0
20260506022335 54 0 0.0 0.0 0.00 0.00 0.00 99 967.0
20260506021824 54 0 0.0 0.0 0.00 0.00 0.00 99 967.0
20260506021313 54 0 0.0 0.0 0.00 0.00 0.00 99 967.0
20260506020801 54 0 0.0 0.0 0.00 0.00 0.00 99 967.0
20260506020250 54 0 0.0 0.0 0.00 0.00 0.00 99 967.0
20260506015739 54 0 0.0 0.0 0.00 0.00 0.00 99 967.0
20260506015227 54 0 0.0 0.0 0.00 0.00 0.00 99 967.0
20260506014716 54 0 0.0 0.0 0.00 0.00 0.00 99 967.0
20260506014204 54 0 0.0 0.0 0.00 0.00 0.00 99 967.0
20260506013653 54 0 0.0 0.0 0.00 0.00 0.00 99 967.0
20260506013142 54 0 0.0 0.0 0.00 0.00 0.00 99 967.0
20260506012630 54 0 0.0 0.0 0.00 0.00 0.00 99 967.0
20260506012119 54 0 0.0 0.0 0.00 0.00 0.00 99 967.0
20260506011608 54 0 0.0 0.0 0.00 0.00 0.00 99 967.0
20260506011056 54 0 0.0 0.0 0.00 0.00 0.00 99 967.0
20260506010545 53 0 0.0 0.0 0.00 0.00 0.00 99 967.0
20260506010034 53 0 0.0 0.0 0.00 0.00 0.00 99 967.0
20260506005522 53 0 0.0 0.0 0.00 0.00 0.00 99 967.0
20260506005011 54 0 0.0 0.0 0.00 0.00 0.00 99 967.0
20260506004459 54 0 0.0 0.0 0.00 0.00 0.00 99 967.0
20260506003948 54 0 0.0 0.0 0.00 0.00 0.00 99 967.0
20260506003437 53 0 0.0 0.0 0.00 0.00 0.00 99 967.0
20260506002925 54 0 0.0 0.0 0.00 0.00 0.00 99 967.0
20260506002414 54 0 0.0 0.0 0.00 0.00 0.00 99 967.0
20260506001903 54 0 0.0 0.0 0.00 0.00 0.00 99 967.0
20260506001351 54 0 0.0 0.0 0.00 0.00 0.00 99 967.0
20260506000840 54 0 0.0 0.0 0.00 0.00 0.00 99 967.0
20260506000330 53 0 0.0 0.0 0.00 0.00 0.00 99 967.0
20260505235817 52 0 0.0 0.0 0.00 0.00 0.00 99 967.0
20260505235306 54 0 0.0 0.0 0.00 0.00 0.00 99 967.0
20260505234754 54 0 0.0 0.0 0.00 0.00 0.00 99 967.0
20260505234243 54 0 0.0 0.0 0.00 0.00 0.00 99 967.0
20260505233732 54 0 0.0 0.0 0.00 0.00 0.00 99 967.0
20260505233220 54 0 0.0 0.0 0.00 0.00 0.00 99 967.0
20260505232709 54 0 0.0 0.0 0.00 0.00 0.00 99 967.0
20260505232158 54 0 0.0 0.0 0.00 0.00 0.00 99 967.0
20260505231646 54 0 0.0 0.0 0.00 0.00 0.00 99 967.0
20260505231135 54 0 0.0 0.0 0.00 0.00 0.00 99 967.0
20260505230624 54 0 0.0 0.0 0.00 0.00 0.00 99 967.0
20260505230112 53 0 0.0 0.0 0.00 0.00 0.00 99 967.0
20260505225601 53 0 0.0 0.0 0.00 0.00 0.00 99 967.0
20260505225050 53 0 0.0 0.0 0.00 0.00 0.00 99 967.0
20260505224538 54 0 0.0 0.0 0.00 0.00 0.00 99 967.0
20260505224027 53 0 0.0 0.0 0.00 0.00 0.00 99 967.0
20260505223515 54 0 0.0 0.0 0.00 0.00 0.00 99 967.0
20260505223004 54 0 0.0 0.0 0.00 0.00 0.00 99 967.0
20260505222453 54 0 0.0 0.0 0.00 0.00 0.00 99 967.0
20260505221941 54 0 0.0 0.0 0.00 0.00 0.00 99 967.0
20260505221430 53 0 0.0 0.0 0.00 0.00 0.00 99 967.0
20260505220919 55 0 0.0 0.0 0.00 0.00 0.00 99 967.0
20260505220407 55 0 0.0 0.0 0.00 0.00 0.00 99 967.0
20260505215856 55 0 0.0 0.0 0.00 0.00 0.00 99 967.0
20260505215344 55 0 0.0 0.0 0.00 0.00 0.00 99 967.0
20260505214833 55 0 0.0 0.0 0.00 0.00 0.00 99 967.0
20260505214322 55 0 0.0 0.0 0.00 0.00 0.00 99 967.0
20260505213810 55 0 0.0 0.0 0.00 0.00 0.00 99 967.0
20260505213259 56 0 0.0 0.0 0.00 0.00 0.00 99 967.0
20260505212748 56 0 0.0 0.0 0.00 0.00 0.00 98 967.0
20260505212236 57 0 0.0 0.0 0.00 0.00 0.00 97 967.0
20260505211725 56 0 0.0 0.0 0.00 0.00 0.00 99 967.0
20260505211214 56 0 0.0 0.0 0.00 0.00 0.00 99 967.0
20260505210702 56 0 0.0 0.0 0.00 0.00 0.00 99 967.0
20260505210151 56 0 0.0 0.0 0.00 0.00 0.00 99 967.0
20260505205640 56 0 0.0 0.0 0.00 0.00 0.00 99 967.0
20260505205128 56 0 0.0 0.0 0.00 0.00 0.00 99 967.0
20260505204617 57 0 0.0 0.0 0.00 0.00 0.00 97 967.0
20260505204105 57 0 0.0 0.0 0.00 0.00 0.00 95 967.0
20260505203554 57 0 0.0 0.0 0.00 0.00 0.00 93 968.0
20260505203043 57 0 0.0 0.0 0.00 0.00 0.00 94 968.0
20260505202531 57 0 0.0 0.0 0.00 0.00 0.00 97 968.0
20260505202020 57 0 0.0 0.0 0.00 0.00 0.00 94 968.0
20260505201509 57 0 0.0 0.0 0.00 0.00 0.00 93 967.0
20260505200957 57 0 0.0 0.0 0.00 0.00 0.00 97 967.0
20260505200446 57 0 0.0 0.0 0.00 0.00 0.00 92 967.0
20260505195935 57 0 0.0 0.0 0.00 0.00 0.00 92 967.0
20260505195423 58 0 0.0 0.0 0.00 0.00 0.00 90 967.0
20260505194912 58 0 0.0 0.0 0.00 0.00 0.00 87 967.0
20260505194400 58 0 0.0 0.0 0.00 0.00 0.00 83 967.0
20260505193849 58 0 0.0 0.0 0.00 0.00 0.00 84 967.0
20260505193338 58 0 0.0 0.0 0.00 0.00 0.00 84 967.0
20260505193039 59 0 0.0 0.0 0.00 0.00 0.00 81 967.0
20260505192527 59 0 0.0 0.0 0.00 0.00 0.00 77 967.0
20260505192016 59 0 0.0 0.0 0.00 0.00 0.00 78 967.0
20260505191505 59 0 0.0 0.0 0.00 0.00 0.00 79 967.0
20260505190953 59 0 0.0 0.0 0.00 0.00 0.00 78 967.0
20260505190442 60 0 0.0 0.0 0.00 0.00 0.00 76 967.0
20260505185930 60 0 0.0 0.0 0.00 0.00 0.00 78 967.0
20260505185419 60 0 0.0 0.0 0.00 0.00 0.00 76 967.0
20260505184908 60 0 0.0 0.0 0.00 0.00 0.00 73 967.0
20260505184356 61 0 0.0 0.0 0.00 0.00 0.00 71 967.0
20260505183845 61 0 0.0 0.0 0.00 0.00 0.00 71 967.0
20260505183334 61 0 0.0 0.0 0.00 0.00 0.00 69 967.0
20260505182822 60 0 0.0 0.0 0.00 0.00 0.00 69 967.0
20260505182311 62 0 0.0 0.0 0.00 0.00 0.00 67 967.0
20260505181800 62 0 0.0 0.0 0.00 0.00 0.00 67 967.0
20260505181248 63 0 0.0 0.0 0.00 0.00 0.00 66 967.0
20260505180737 63 0 0.0 0.0 0.00 0.00 0.00 65 967.0
20260505180225 64 0 0.0 0.0 0.00 0.00 0.00 64 967.0
20260505175714 64 0 0.0 0.0 0.00 0.00 0.00 65 967.0
20260505175203 64 0 0.0 0.0 0.00 0.00 0.00 63 967.0
20260505174651 63 0 0.0 0.0 0.00 0.00 0.00 65 967.0
20260505174140 64 0 0.0 0.0 0.00 0.00 0.00 63 967.0
20260505173629 66 0 0.0 0.0 0.00 0.00 0.00 61 967.0
20260505173117 65 0 0.0 0.0 0.00 0.00 0.00 62 967.0
20260505172606 66 0 0.0 0.0 0.00 0.00 0.00 62 967.0
20260505172055 64 0 0.0 0.0 0.00 0.00 0.00 69 967.0
20260505171543 65 0 0.0 0.0 0.00 0.00 0.00 62 967.0
20260505171032 67 0 0.0 0.0 0.00 0.00 0.00 60 966.0
20260505170521 69 0 0.0 0.0 0.00 0.00 0.00 52 966.0
20260505170009 70 0 0.0 0.0 0.00 0.00 0.00 47 966.0
20260505165458 70 0 0.0 0.0 0.00 0.00 0.00 49 966.0
20260505164946 71 0 0.0 0.0 0.00 0.00 0.00 44 966.0
20260505164435 71 0 0.0 0.0 0.00 0.00 0.00 43 966.0
20260505163924 72 0 0.0 0.0 0.00 0.00 0.00 43 966.0
20260505163412 72 0 0.0 0.0 0.00 0.00 0.00 43 966.0
20260505162901 72 0 0.0 0.0 0.00 0.00 0.00 42 966.0
20260505162350 72 0 0.0 0.0 0.00 0.00 0.00 42 966.0
20260505161838 73 0 0.0 0.0 0.00 0.00 0.00 41 966.0
20260505161421 73 0 0.0 0.0 0.00 0.00 0.00 41 966.0
20260505160910 73 0 0.0 0.0 0.00 0.00 0.00 41 966.0
20260505160358 74 0 0.0 0.0 0.00 0.00 0.00 40 966.0
20260505153250 76 0 0.0 0.0 0.00 0.00 0.00 37 966.0
20260505152739 77 0 0.0 0.0 0.00 0.00 0.00 38 966.0
20260505152227 77 0 0.0 0.0 0.00 0.00 0.00 36 966.0
20260505151716 76 0 0.0 0.0 0.00 0.00 0.00 37 966.0
20260505151205 77 0 0.0 0.0 0.00 0.00 0.00 37 966.0
20260505150653 76 0 0.0 0.0 0.00 0.00 0.00 36 966.0
20260505150142 77 0 0.0 0.0 0.00 0.00 0.00 36 966.0
20260505140437 79 0 0.0 0.0 0.00 0.00 0.00 35 967.0
20260505130221 78 0 0.0 0.0 0.00 0.00 0.00 35 967.0
20260505124646 80 0 0.0 0.0 0.00 0.00 0.00 36 967.0
20260505124135 79 0 0.0 0.0 0.00 0.00 0.00 37 968.0
20260505123624 79 0 0.0 0.0 0.00 0.00 0.00 37 968.0
20260505123112 80 0 0.0 0.0 0.00 0.00 0.00 38 968.0
20260505122601 80 0 0.0 0.0 0.00 0.00 0.00 39 968.0
20260505122050 80 0 0.0 0.0 0.00 0.00 0.00 38 968.0
20260505121538 79 0 0.0 0.0 0.00 0.00 0.00 37 968.0
20260505121027 80 0 0.0 0.0 0.00 0.00 0.00 37 968.0
20260505120516 81 0 0.0 0.0 0.00 0.00 0.00 39 968.0
20260505120005 80 0 0.0 0.0 0.00 0.00 0.00 40 968.0
20260505115453 81 0 0.0 0.0 0.00 0.00 0.00 39 968.0
20260505114942 79 0 0.0 0.0 0.00 0.00 0.00 36 968.0
20260505114430 81 0 0.0 0.0 0.00 0.00 0.00 41 968.0
20260505113919 79 0 0.0 0.0 0.00 0.00 0.00 38 968.0